[[{"header":{"parameterUnit":"m.s-1","parameterCategory":1,"la1":30.2991,"la2":30.254,"lo1":-89.0895,"lo2":-89.0444,"dy":0.0017,"dx":0.0017,"nx":28,"ny":28,"refTime":"2023-04-27T21:00:00:Z","depth":0,"parameterNumber":2,"parameterNumberName":"U-component_of_WINDS"},"data":[0,0,0,0,0,0,0,0,0,0,0,0,0,0,0,0,0,0,0,0,0,0,0,0,0,0,0,0,0,0,0,0,0,0,0,0,0,0,0,0,0,0,0,0,0,0,0,0,0,0,0,0,0,0,0,0,0,0,-2.092,-2.092,0,-2.0917,-2.0917,-2.0917,-2.0883,-2.0882,-2.0881,-2.0881,-2.0878,-2.0879,-2.0879,0,0,0,0,0,0,0,0,0,0,0,0,0,-2.0898,-2.0899,-2.092,-2.092,-2.092,-2.0917,-2.0917,-2.0917,-2.0883,-2.0882,-2.0881,-2.088,-2.0878,-2.0878,-2.0879,0,0,0,0,0,0,0,0,0,0,0,0,0,-2.0903,-2.0899,-2.092,-2.0903,-2.0901,-2.0917,-2.0917,-2.0917,-2.0884,-2.0882,-2.0881,-2.088,-2.0877,-2.0878,-2.0879,-2.0912,0,0,-2.0883,-2.0883,0,0,0,0,0,0,0,0,-2.0902,-2.0903,-2.0906,-2.0904,-2.0903,-2.0899,-2.0908,-2.0915,-2.0884,-2.089,-2.0881,-2.0879,-2.0886,-2.0886,-2.0889,-2.0911,-2.0911,-2.0883,-2.0884,-2.0884,-2.0884,0,0,0,0,0,0,0,-2.0902,-2.0903,-2.0919,-2.0906,-2.0904,-2.0896,-2.0895,-2.0909,-2.0895,-2.089,-2.0887,-2.0887,-2.0885,-2.0888,-2.0888,-2.0911,-2.0883,-2.0884,-2.0884,-2.0885,-2.096,-2.0961,0,0,0,0,0,0,-2.0904,-2.0903,-2.0919,-2.0919,-2.0899,-2.0897,-2.0896,-2.0902,-2.0895,-2.0893,-2.0888,-2.0886,-2.0886,-2.0887,-2.0888,-2.0925,-2.0884,-2.0885,-2.0886,-2.0959,-2.096,-2.0962,0,0,0,0,0,0,-2.0904,-2.0906,-2.0919,-2.091,-2.0912,-2.0899,-2.0905,-2.0902,-2.0905,-2.0894,-2.0892,-2.0894,-2.0885,-2.0886,-2.0906,-2.0924,-2.0885,-2.0886,-2.0957,-2.0959,-2.0961,-2.0998,0,0,0,0,0,0,-2.0903,-2.0906,-2.0918,-2.0911,-2.0912,-2.0937,-2.0906,-2.0903,-2.0907,-2.0903,-2.0898,-2.0896,-2.0884,-2.0904,-2.0907,-2.0925,-2.0887,-2.0955,-2.0958,-2.0961,-2.0995,-2.1001,-2.1007,0,0,0,0,0,-2.0903,-2.0929,-2.0919,-2.0921,-2.0927,-2.0938,-2.0939,-2.0925,-2.0908,-2.092,-2.0913,-2.0896,-2.0922,-2.0907,-2.0909,-2.0928,-2.0954,-2.0957,-2.096,-2.0993,-2.1,-2.1006,0,0,0,0,0,0,-2.0938,-2.0927,-2.0916,-2.0941,-2.0941,-2.0932,-2.0947,-2.0933,-2.0937,-2.0934,-2.0916,-2.0916,-2.0938,-2.0935,-2.0918,-2.0958,-2.0935,-2.0939,-2.0959,-2.0966,-2.0971,-2.0971,-2.0888,0,0,0,0,0,-2.0949,-2.0959,-2.0949,-2.0972,-2.0972,-2.096,-2.0964,-2.0953,-2.0952,-2.0952,-2.0947,-2.0947,-2.0955,-2.096,-2.0967,-2.0995,-2.0994,-2.1009,-2.1015,-2.102,-2.1023,-2.1037,-2.1043,-2.0972,-2.0972,-2.0972,0,0,-2.0971,-2.0966,-2.0974,-2.0979,-2.0977,-2.0988,-2.096,-2.0973,-2.098,-2.0954,-2.0972,-2.0968,-2.0967,-2.0991,-2.1001,-2.0989,-2.1042,-2.1023,-2.1027,-2.1028,-2.1041,-2.1047,-2.1053,-2.0974,-2.0974,-2.0973,0,0,-2.1016,-2.1014,-2.1032,-2.1032,-2.103,-2.1021,-2.1026,-2.102,-2.1016,-2.1034,-2.1015,-2.1024,-2.1038,-2.1038,-2.104,-2.1086,-2.107,-2.1089,-2.1117,-2.1131,-2.1137,-2.1142,-2.1157,-2.1163,-2.1092,-2.1092,-2.1092,0,-2.1044,-2.1059,-2.1044,-2.1058,-2.106,-2.1037,-2.1056,-2.1056,-2.1056,-2.1059,-2.1046,-2.1063,-2.1061,-2.1084,-2.1095,-2.1098,-2.1102,-2.1089,-2.1137,-2.1142,-2.1146,-2.1161,-2.1167,-2.1094,-2.1094,-2.1094,-2.1094,0,-2.1093,-2.1104,-2.1119,-2.112,-2.1124,-2.1141,-2.1128,-2.1134,-2.1123,-2.1116,-2.1134,-2.1131,-2.1136,-2.1141,-2.1131,-2.1163,-2.1156,-2.114,-2.1116,-2.1156,-2.1169,-2.1175,-2.1097,-2.1097,-2.1096,-2.1095,0,0,-2.116,-2.1152,-2.1158,-2.1158,-2.1154,-2.1162,-2.1178,-2.1183,-2.1189,-2.119,-2.1202,-2.1215,-2.1201,-2.1203,-2.1192,-2.1205,-2.1241,-2.1188,-2.1187,-2.1197,-2.1275,-2.1286,-2.1293,-2.1231,-2.1232,-2.1233,-2.1275,0,-2.1203,-2.1228,-2.1214,-2.1241,-2.1251,-2.123,-2.1243,-2.1242,-2.1237,-2.1244,-2.1238,-2.1247,-2.1228,-2.1229,-2.124,-2.1234,-2.1256,-2.1231,-2.1241,-2.1242,-2.1241,-2.13,-2.1311,-2.1351,-2.128,-2.1281,-2.1282,0,-2.1256,-2.1259,-2.1287,-2.1282,-2.1285,-2.1297,-2.1301,-2.1308,-2.1308,-2.1302,-2.1305,-2.1292,-2.1306,-2.1284,-2.1303,-2.1287,-2.129,-2.1288,-2.1289,-2.1289,-2.1263,-2.13,-2.1364,-2.1369,-2.129,-2.1289,-2.1289,0,-2.1301,-2.1313,-2.133,-2.1331,-2.1326,-2.1334,-2.1333,-2.133,-2.1334,-2.1338,-2.134,-2.1345,-2.1348,-2.1353,-2.1341,-2.1326,-2.1362,-2.1339,-2.1358,-2.1358,-2.1366,-2.1365,-2.143,-2.137,-2.137,-2.137,-2.137,0,-2.135,-2.1367,-2.135,-2.1361,-2.138,-2.1365,-2.1385,-2.1381,-2.1379,-2.1389,-2.1371,-2.1381,-2.1365,-2.1373,-2.1365,-2.1382,-2.1384,-2.138,-2.1377,-2.1381,-2.1381,-2.1382,-2.1379,-2.1372,-2.1371,-2.1371,-2.1371,0,-2.1403,-2.1392,-2.141,-2.1403,-2.1402,-2.1416,-2.141,-2.142,-2.1413,-2.1426,-2.1428,-2.1418,-2.1426,-2.1415,-2.1423,-2.1417,-2.1441,-2.1434,-2.1441,-2.1439,-2.1458,-2.1456,-2.1525,-2.1533,-2.1469,-2.147,-2.147,0,-2.1434,-2.1447,-2.1441,-2.1446,-2.1446,-2.1454,-2.1458,-2.1444,-2.1449,-2.1449,-2.1459,-2.1466,-2.1471,-2.1486,-2.1479,-2.1485,-2.1478,-2.1501,-2.1478,-2.1481,-2.1477,-2.1476,-2.1477,-2.1506,-2.1506,-2.1507,-2.1508,0,-2.1491,-2.1485,-2.1491,-2.1495,-2.15,-2.1503,-2.1504,-2.1509,-2.1495,-2.1501,-2.1509,-2.1513,-2.1521,-2.1528,-2.1532,-2.1531,-2.1517,-2.1515,-2.152,-2.1523,-2.1526,-2.1523,-2.1452,-2.1513,-2.1513,-2.1512,-2.1512,-2.1512,-2.1533,-2.1543,-2.1541,-2.1548,-2.1548,-2.1549,-2.1558,-2.1552,-2.1559,-2.1564,-2.1556,-2.1566,-2.1565,-2.1569,-2.1569,-2.1577,-2.1567,-2.1574,-2.1575,-2.1577,-2.1579,-2.1525,-2.1578,-2.1578,-2.1577,-2.1577,-2.1577,0,-2.1588,-2.1585,-2.1592,-2.1594,-2.16,-2.1586,-2.1587,-2.1593,-2.1602,-2.1602,-2.1608,-2.1617,-2.1624,-2.1618,-2.1624,-2.1631,-2.1625,-2.1633,-2.1632,-2.1632,-2.1589,-2.1583,-2.1638,-2.1638,-2.1638,-2.1638,-2.1638,-2.1638,-2.1617,-2.1633,-2.1627,-2.1643,-2.164,-2.165,-2.1652,-2.1653,-2.1653,-2.1665,-2.167,-2.1666,-2.1664,-2.1669,-2.1675,-2.1673,-2.1675,-2.1686,-2.1681,-2.1641,-2.1635,-2.1629,-2.1624,-2.1687,-2.1687,-2.1724,-2.1724,-2.1724]},{"header":{"parameterUnit":"m.s-1","parameterCategory":1,"la1":30.2991,"la2":30.254,"lo1":-89.0895,"lo2":-89.0444,"dy":0.0017,"dx":0.0017,"nx":28,"ny":28,"refTime":"2023-04-27T21:00:00:Z","depth":0,"parameterNumber":3,"parameterNumberName":"V-component_of_WINDS"},"data":[0,0,0,0,0,0,0,0,0,0,0,0,0,0,0,0,0,0,0,0,0,0,0,0,0,0,0,0,0,0,0,0,0,0,0,0,0,0,0,0,0,0,0,0,0,0,0,0,0,0,0,0,0,0,0,0,0,0,1.9262,1.9262,0,1.9286,1.9286,1.9287,1.9267,1.9267,1.9266,1.9265,1.9289,1.9291,1.9292,0,0,0,0,0,0,0,0,0,0,0,0,0,1.92,1.9201,1.9262,1.9262,1.9263,1.9286,1.9286,1.9287,1.9267,1.9266,1.9265,1.9265,1.9289,1.9291,1.9292,0,0,0,0,0,0,0,0,0,0,0,0,0,1.9226,1.9202,1.9262,1.9256,1.9256,1.9286,1.9286,1.9287,1.9268,1.9266,1.9265,1.9264,1.9288,1.929,1.9293,1.933,0,0,1.9299,1.93,0,0,0,0,0,0,0,0,1.9224,1.9228,1.9256,1.9256,1.9256,1.9272,1.9273,1.9301,1.9268,1.9263,1.9265,1.9263,1.9285,1.9287,1.9294,1.9331,1.9332,1.9299,1.93,1.9301,1.9302,0,0,0,0,0,0,0,1.9223,1.9227,1.9272,1.9257,1.9257,1.9252,1.9254,1.9279,1.928,1.9263,1.9262,1.9265,1.9284,1.9292,1.9295,1.9333,1.9299,1.9301,1.9302,1.9303,1.9403,1.9405,0,0,0,0,0,0,1.9221,1.9226,1.9271,1.9272,1.9237,1.9254,1.9257,1.9268,1.928,1.9281,1.9266,1.9264,1.9289,1.9292,1.9295,1.9342,1.9301,1.9303,1.9305,1.9402,1.9404,1.9405,0,0,0,0,0,0,1.922,1.9226,1.927,1.9249,1.9254,1.9257,1.927,1.927,1.9277,1.9282,1.9283,1.9274,1.9288,1.9293,1.9322,1.9342,1.9304,1.9306,1.94,1.9403,1.9404,1.9433,0,0,0,0,0,0,1.9218,1.9225,1.9239,1.9249,1.9255,1.9296,1.9271,1.9271,1.9281,1.9279,1.929,1.929,1.9288,1.9319,1.9324,1.9344,1.9308,1.9399,1.9401,1.9404,1.9431,1.9436,1.9441,0,0,0,0,0,1.9216,1.9246,1.924,1.9246,1.9273,1.9297,1.9301,1.9297,1.9283,1.9297,1.9301,1.929,1.9339,1.9322,1.9328,1.9349,1.9397,1.9401,1.9404,1.9428,1.9435,1.9441,0,0,0,0,0,0,1.9239,1.9247,1.9241,1.9275,1.9285,1.9294,1.9312,1.9304,1.9319,1.9316,1.9311,1.9314,1.9345,1.935,1.9331,1.9387,1.9366,1.937,1.9383,1.9389,1.9394,1.9393,1.931,0,0,0,0,0,1.9248,1.9266,1.9273,1.9302,1.9308,1.9309,1.932,1.9316,1.9327,1.9331,1.9337,1.9348,1.9366,1.9377,1.9394,1.9431,1.9434,1.9448,1.9453,1.9458,1.9462,1.9483,1.949,1.9416,1.9416,1.9415,0,0,1.9266,1.9273,1.9285,1.9307,1.9315,1.9335,1.9313,1.9335,1.935,1.9334,1.9363,1.9368,1.9379,1.9413,1.9428,1.9418,1.9483,1.9462,1.9465,1.9467,1.9487,1.9494,1.95,1.9418,1.9417,1.9417,0,0,1.9311,1.9317,1.9343,1.9352,1.9364,1.9365,1.9371,1.9381,1.9383,1.9412,1.9401,1.9419,1.9449,1.9459,1.9468,1.9517,1.9508,1.9522,1.9549,1.957,1.9576,1.9581,1.96,1.9606,1.9526,1.9526,1.9526,0,1.9332,1.9362,1.9357,1.9381,1.9391,1.9378,1.9405,1.9413,1.943,1.9438,1.9426,1.9465,1.9472,1.9509,1.9521,1.9528,1.9535,1.9521,1.9575,1.9581,1.9585,1.9603,1.961,1.9528,1.9528,1.9527,1.9527,0,1.9389,1.9409,1.9429,1.9446,1.9459,1.9483,1.9483,1.9496,1.9492,1.9494,1.9524,1.9532,1.955,1.9559,1.9554,1.9595,1.9588,1.9576,1.9555,1.9594,1.9611,1.9618,1.953,1.953,1.9529,1.9529,0,0,1.9448,1.9463,1.947,1.9479,1.9492,1.9508,1.9532,1.9551,1.9563,1.9575,1.9596,1.9623,1.9612,1.9622,1.9618,1.9636,1.9676,1.9622,1.9622,1.9633,1.9723,1.9733,1.9741,1.967,1.9671,1.9672,1.9723,0,1.9494,1.9537,1.9534,1.9574,1.9594,1.9582,1.9604,1.9614,1.9617,1.9635,1.9637,1.9657,1.964,1.9647,1.9664,1.9668,1.9695,1.9664,1.969,1.9691,1.9689,1.975,1.976,1.9807,1.9729,1.973,1.9731,0,1.9553,1.9569,1.9611,1.9622,1.963,1.965,1.9667,1.9684,1.9695,1.9696,1.9708,1.9702,1.9727,1.9705,1.974,1.972,1.973,1.9734,1.9736,1.9739,1.9714,1.9756,1.9822,1.983,1.9741,1.974,1.9739,0,1.9594,1.9625,1.9655,1.9662,1.9675,1.9689,1.9695,1.9706,1.9718,1.9733,1.9741,1.9758,1.9768,1.9783,1.9782,1.9765,1.9818,1.9795,1.982,1.982,1.9832,1.9832,1.9903,1.9837,1.9837,1.9837,1.9837,0,1.9647,1.9674,1.9674,1.9692,1.9722,1.9718,1.9748,1.9753,1.9763,1.9782,1.9773,1.9791,1.9788,1.9807,1.9806,1.9836,1.9841,1.9843,1.9842,1.9844,1.9844,1.9852,1.9849,1.9839,1.9838,1.9838,1.9838,0,1.9698,1.9699,1.9731,1.9741,1.9744,1.9766,1.9774,1.9792,1.9794,1.9819,1.9825,1.9828,1.985,1.985,1.9874,1.9874,1.9911,1.9907,1.9908,1.9907,1.9932,1.9931,2.0011,2.0022,1.9949,1.9949,1.995,0,1.9732,1.9752,1.9765,1.9777,1.9785,1.9805,1.9817,1.9814,1.9827,1.9843,1.9859,1.988,1.9896,1.9932,1.9937,1.9956,1.9952,1.9979,1.9955,1.9957,1.9954,1.9954,1.9956,1.9984,1.9985,1.9986,1.9986,0,1.9793,1.9792,1.981,1.9829,1.9843,1.9858,1.9871,1.9882,1.988,1.9896,1.9918,1.9931,1.9956,1.9978,1.9996,2.0003,1.9995,1.9994,2.0001,2.0004,2.0004,2.0005,1.9922,1.9992,1.9992,1.9991,1.9991,1.9991,1.9837,1.9856,1.9868,1.9888,1.9898,1.991,1.9928,1.9932,1.9951,1.9972,1.9969,1.9994,2.0006,2.0031,2.0039,2.0059,2.0049,2.0059,2.0062,2.0065,2.0068,2.0,2.0062,2.0062,2.0062,2.0061,2.0061,0,1.9899,1.9906,1.9925,1.9944,1.996,1.9951,1.9965,1.998,2.0002,2.0014,2.0031,2.0057,2.0078,2.0084,2.0105,2.012,2.0117,2.0125,2.0125,2.0127,2.0075,2.0067,2.0127,2.0127,2.0127,2.0127,2.0127,2.0127,1.9933,1.9964,1.9965,2.0001,2.0008,2.0032,2.0042,2.0054,2.0063,2.0093,2.011,2.0114,2.0125,2.0146,2.0165,2.0166,2.0174,2.0185,2.0185,2.0137,2.013,2.0124,2.0117,2.0186,2.0186,2.0235,2.0236,2.0236]}]]